Time,TemperatureF,DewpointF,PressureIn,WindDirection,WindDirectionDegrees,WindSpeedMPH,WindSpeedGustMPH,Humidity,HourlyPrecipIn,Conditions,Clouds,dailyrainin,SoftwareType,DateUTC
2016-02-08 00:03:00,39.7,14.0,29.84,NW,325,8.7,10.1,34,0.00,,---,-99.99,VWS V14.01,2016-02-08 06:03:00,
2016-02-08 00:08:00,39.9,14.2,29.84,NW,308,8.3,10.1,34,0.00,,---,-99.99,VWS V14.01,2016-02-08 06:08:00,
2016-02-08 00:13:00,40.1,14.3,29.84,NW,313,10.5,10.5,34,0.00,,---,-99.99,VWS V14.01,2016-02-08 06:13:00,
2016-02-08 00:23:00,40.1,14.3,29.84,NW,310,7.6,11.0,34,0.00,,---,-99.99,VWS V14.01,2016-02-08 06:23:00,
2016-02-08 00:28:00,40.3,14.5,29.84,NW,317,10.5,10.5,34,0.00,,---,-99.99,VWS V14.01,2016-02-08 06:28:00,
2016-02-08 00:33:00,40.3,14.5,29.84,NW,306,7.6,10.5,34,0.00,,---,-99.99,VWS V14.01,2016-02-08 06:33:00,
2016-02-08 00:38:00,40.3,14.5,29.84,WNW,290,8.1,8.1,34,0.00,,---,-99.99,VWS V14.01,2016-02-08 06:38:00,
2016-02-08 00:43:00,40.3,14.5,29.84,WNW,299,8.7,8.7,34,0.00,,---,-99.99,VWS V14.01,2016-02-08 06:43:00,
2016-02-08 00:48:00,40.3,14.5,29.84,WNW,301,10.5,10.5,34,0.00,,---,-99.99,VWS V14.01,2016-02-08 06:48:00,
2016-02-08 00:58:00,40.5,14.6,29.84,NW,313,8.3,8.7,34,0.00,,---,-99.99,VWS V14.01,2016-02-08 06:58:00,
2016-02-08 01:03:00,40.6,14.8,29.84,West,277,5.8,8.3,34,0.00,,---,-99.99,VWS V14.01,2016-02-08 07:03:00,
2016-02-08 01:08:00,40.6,14.8,29.84,WNW,300,6.3,6.3,34,0.00,,---,-99.99,VWS V14.01,2016-02-08 07:08:00,
2016-02-08 01:13:00,40.6,14.8,29.84,WNW,288,8.3,8.3,34,0.00,,---,-99.99,VWS V14.01,2016-02-08 07:13:00,
2016-02-08 01:23:00,40.5,14.6,29.84,WNW,291,6.7,6.7,34,0.00,,---,-99.99,VWS V14.01,2016-02-08 07:23:00,
2016-02-08 01:28:00,40.5,14.6,29.84,WNW,296,8.1,8.1,34,0.00,,---,-99.99,VWS V14.01,2016-02-08 07:28:00,
2016-02-08 01:33:00,40.5,14.6,29.84,NW,314,9.2,11.0,34,0.00,,---,-99.99,VWS V14.01,2016-02-08 07:33:00,
2016-02-08 01:38:00,40.6,14.8,29.84,WNW,291,8.7,8.7,34,0.00,,---,-99.99,VWS V14.01,2016-02-08 07:38:00,
2016-02-08 01:43:00,40.8,15.0,29.84,NW,305,7.2,10.1,34,0.00,,---,-99.99,VWS V14.01,2016-02-08 07:43:00,
2016-02-08 01:48:00,40.8,15.0,29.84,NW,310,8.7,8.7,34,0.00,,---,-99.99,VWS V14.01,2016-02-08 07:48:00,
2016-02-08 01:53:00,40.8,15.0,29.84,WNW,284,10.5,10.5,34,0.00,,---,-99.99,VWS V14.01,2016-02-08 07:53:00,
2016-02-08 01:58:00,40.8,15.0,29.84,NW,305,5.8,8.3,34,0.00,,---,-99.99,VWS V14.01,2016-02-08 07:58:00,
2016-02-08 02:03:00,40.6,14.8,29.84,WNW,295,8.7,8.7,34,0.00,,---,-99.99,VWS V14.01,2016-02-08 08:03:00,
2016-02-08 02:08:00,40.1,14.3,29.84,WNW,294,8.1,8.7,34,0.00,,---,-99.99,VWS V14.01,2016-02-08 08:08:00,
2016-02-08 02:13:00,39.6,13.9,29.84,NW,312,8.1,8.1,34,0.00,,---,-99.99,VWS V14.01,2016-02-08 08:13:00,
2016-02-08 02:18:00,39.2,13.5,29.84,WNW,303,10.1,10.1,34,0.00,,---,-99.99,VWS V14.01,2016-02-08 08:18:00,
2016-02-08 02:23:00,38.7,14.0,29.84,West,279,5.8,7.2,36,0.00,,---,-99.99,VWS V14.01,2016-02-08 08:23:00,
2016-02-08 02:28:00,38.3,13.7,29.84,NW,312,10.5,10.5,36,0.00,,---,-99.99,VWS V14.01,2016-02-08 08:28:00,
2016-02-08 02:33:00,37.9,13.4,29.84,WNW,297,13.2,13.2,36,0.00,,---,-99.99,VWS V14.01,2016-02-08 08:33:00,
2016-02-08 02:38:00,37.6,13.1,29.84,NW,305,8.3,11.0,36,0.00,,---,-99.99,VWS V14.01,2016-02-08 08:38:00,
2016-02-08 02:43:00,37.6,13.1,29.84,NW,310,10.1,10.5,36,0.00,,---,-99.99,VWS V14.01,2016-02-08 08:43:00,
2016-02-08 02:48:00,37.4,12.9,29.84,WNW,292,10.1,11.0,36,0.00,,---,-99.99,VWS V14.01,2016-02-08 08:48:00,
2016-02-08 02:53:00,37.6,13.1,29.84,NW,310,8.1,8.3,36,0.00,,---,-99.99,VWS V14.01,2016-02-08 08:53:00,
2016-02-08 02:58:00,37.6,13.1,29.84,WNW,303,11.4,11.4,36,0.00,,---,-99.99,VWS V14.01,2016-02-08 08:58:00,
2016-02-08 03:03:00,37.6,13.1,29.84,WNW,294,10.5,11.0,36,0.00,,---,-99.99,VWS V14.01,2016-02-08 09:03:00,
2016-02-08 03:08:00,37.4,12.9,29.84,WNW,295,8.1,9.6,36,0.00,,---,-99.99,VWS V14.01,2016-02-08 09:08:00,
2016-02-08 03:13:00,37.0,12.6,29.84,WNW,287,9.2,10.1,36,0.00,,---,-99.99,VWS V14.01,2016-02-08 09:13:00,
2016-02-08 03:18:00,36.5,12.1,29.84,WNW,283,8.7,8.7,36,0.00,,---,-99.99,VWS V14.01,2016-02-08 09:18:00,
2016-02-08 03:23:00,36.0,11.6,29.84,WNW,289,8.1,10.5,36,0.00,,---,-99.99,VWS V14.01,2016-02-08 09:23:00,
2016-02-08 03:28:00,35.6,11.3,29.84,NW,304,8.1,8.1,36,0.00,,---,-99.99,VWS V14.01,2016-02-08 09:28:00,
2016-02-08 03:33:00,35.4,12.1,29.84,WNW,294,8.3,8.3,38,0.00,,---,-99.99,VWS V14.01,2016-02-08 09:33:00,
2016-02-08 03:37:00,35.4,12.1,29.84,West,280,7.6,8.7,38,0.00,,---,-99.99,VWS V14.01,2016-02-08 09:37:00,
2016-02-08 03:42:00,35.1,11.7,29.84,West,279,8.1,8.1,38,0.00,,---,-99.99,VWS V14.01,2016-02-08 09:42:00,
2016-02-08 03:47:00,34.9,11.6,29.84,WNW,288,8.7,8.7,38,0.00,,---,-99.99,VWS V14.01,2016-02-08 09:47:00,
2016-02-08 03:52:00,34.7,13.1,29.84,WNW,287,8.3,8.3,40,0.00,,---,-99.99,VWS V14.01,2016-02-08 09:52:00,
2016-02-08 03:57:00,34.5,13.0,29.84,WNW,297,6.3,8.7,40,0.00,,---,-99.99,VWS V14.01,2016-02-08 09:57:00,
2016-02-08 04:02:00,34.3,12.8,29.84,WNW,285,7.6,8.3,40,0.00,,---,-99.99,VWS V14.01,2016-02-08 10:02:00,
2016-02-08 04:07:00,34.3,12.8,29.84,WNW,303,8.1,8.7,40,0.00,,---,-99.99,VWS V14.01,2016-02-08 10:07:00,
2016-02-08 04:12:00,34.3,12.8,29.84,WNW,285,8.7,10.5,40,0.00,,---,-99.99,VWS V14.01,2016-02-08 10:12:00,
2016-02-08 04:22:00,34.0,12.5,29.84,WNW,287,8.1,8.1,40,0.00,,---,-99.99,VWS V14.01,2016-02-08 10:22:00,
2016-02-08 04:27:00,34.0,12.5,29.84,NW,317,6.3,8.3,40,0.00,,---,-99.99,VWS V14.01,2016-02-08 10:27:00,
2016-02-08 04:32:00,33.8,12.3,29.84,WNW,297,8.1,8.7,40,0.00,,---,-99.99,VWS V14.01,2016-02-08 10:32:00,
2016-02-08 04:42:00,32.7,13.7,29.84,NW,310,8.7,8.7,45,0.00,,---,-99.99,VWS V14.01,2016-02-08 10:42:00,
2016-02-08 04:57:00,31.3,13.2,29.84,WNW,303,7.6,7.6,46,0.00,,---,-99.99,VWS V14.01,2016-02-08 10:57:00,
2016-02-08 05:02:00,30.9,12.8,29.84,WNW,291,6.3,8.1,46,0.00,,---,-99.99,VWS V14.01,2016-02-08 11:02:00,
2016-02-08 05:07:00,30.6,13.2,29.84,NW,309,5.8,7.6,48,0.00,,---,-99.99,VWS V14.01,2016-02-08 11:07:00,
2016-02-08 05:12:00,30.4,13.1,29.84,NW,308,8.7,8.7,48,0.00,,---,-99.99,VWS V14.01,2016-02-08 11:12:00,
2016-02-08 05:17:00,30.4,13.8,29.84,NNW,327,6.3,7.6,50,0.00,,---,-99.99,VWS V14.01,2016-02-08 11:17:00,
2016-02-08 05:22:00,30.7,14.1,29.84,WNW,286,7.6,12.8,50,0.00,,---,-99.99,VWS V14.01,2016-02-08 11:22:00,
2016-02-08 05:27:00,31.5,14.8,29.84,NNW,335,8.1,8.7,50,0.00,,---,-99.99,VWS V14.01,2016-02-08 11:27:00,
2016-02-08 05:32:00,32.2,14.7,29.84,NNW,337,8.1,8.3,48,0.00,,---,-99.99,VWS V14.01,2016-02-08 11:32:00,
2016-02-08 05:37:00,32.7,15.2,29.84,NW,307,5.4,11.0,48,0.00,,---,-99.99,VWS V14.01,2016-02-08 11:37:00,
2016-02-08 05:42:00,32.7,15.2,29.84,NNW,327,7.6,7.6,48,0.00,,---,-99.99,VWS V14.01,2016-02-08 11:42:00,
2016-02-08 05:47:00,32.7,15.2,29.84,NW,307,8.7,8.7,48,0.00,,---,-99.99,VWS V14.01,2016-02-08 11:47:00,
2016-02-08 05:57:00,32.7,15.2,29.84,NW,305,8.3,12.3,48,0.00,,---,-99.99,VWS V14.01,2016-02-08 11:57:00,
2016-02-08 06:02:00,33.1,15.5,29.84,NW,316,5.4,6.7,48,0.00,,---,-99.99,VWS V14.01,2016-02-08 12:02:00,
2016-02-08 06:07:00,33.1,14.8,29.84,NNW,337,8.1,12.3,46,0.00,,---,-99.99,VWS V14.01,2016-02-08 12:07:00,
2016-02-08 06:17:00,33.1,14.8,29.84,NW,314,8.7,16.8,46,0.00,,---,-99.99,VWS V14.01,2016-02-08 12:17:00,
2016-02-08 06:22:00,33.3,15.0,29.84,WNW,293,11.0,11.0,46,0.00,,---,-99.99,VWS V14.01,2016-02-08 12:22:00,
2016-02-08 06:27:00,33.3,15.0,29.84,NW,305,8.7,10.5,46,0.00,,---,-99.99,VWS V14.01,2016-02-08 12:27:00,
2016-02-08 06:32:00,33.3,15.0,29.84,NW,325,9.2,13.2,46,0.00,,---,-99.99,VWS V14.01,2016-02-08 12:32:00,
2016-02-08 06:37:00,33.3,15.0,29.84,NW,304,8.3,10.5,46,0.00,,---,-99.99,VWS V14.01,2016-02-08 12:37:00,
2016-02-08 06:42:00,33.3,15.0,29.84,NW,313,10.1,10.1,46,0.00,,---,-99.99,VWS V14.01,2016-02-08 12:42:00,
2016-02-08 06:47:00,33.3,15.0,29.84,NW,305,10.5,10.5,46,0.00,,---,-99.99,VWS V14.01,2016-02-08 12:47:00,